Location: ??????
(38.1303°N, 24.0039°E)
Time: 19:41:09
(UTC+00:00)

DELTA 2 R/B (1) - Pass Details

Date: 26 October 2021
Orbit: 790 x 802 km, 39.6° (Epoch: 01 December)

Event Time Altitude Azimuth Distance (km) Brightness Sun altitude
Rises 17:02:50 0° 215° (SW) 3,289 7.3 -18.5°
Reaches altitude 10° 17:05:37 10° 204° (SSW) 2,361 6.3 -19.1°
Maximum altitude 17:10:18 28° 147° (SSE) 1,447 4.6 -20.0°
Enters shadow 17:10:56 28° 135° (SE) 1,468 4.6 -20.1°
